Time,TemperatureF,DewpointF,PressureIn,WindDirection,WindDirectionDegrees,WindSpeedMPH,WindSpeedGustMPH,Humidity,HourlyPrecipIn,Conditions,Clouds,dailyrainin,SoftwareType,DateUTC
2016-02-09 00:01:00,58.7,53.5,29.86,SE,143,1.0,5.0,83,0.00,,,0.00,Wunderground v.1.15,2016-02-09 05:01:00,
2016-02-09 00:06:00,58.9,53.7,29.86,WSW,254,1.0,5.0,83,0.00,,,0.00,Wunderground v.1.15,2016-02-09 05:06:00,
2016-02-09 00:11:00,59.0,53.8,29.86,SE,142,1.0,5.0,83,0.00,,,0.00,Wunderground v.1.15,2016-02-09 05:11:00,
2016-02-09 00:21:00,59.3,54.1,29.85,WSW,248,1.0,6.0,83,0.00,,,0.00,Wunderground v.1.15,2016-02-09 05:21:00,
2016-02-09 00:31:00,59.6,54.1,29.84,SSW,207,2.0,9.0,82,0.00,,,0.00,Wunderground v.1.15,2016-02-09 05:31:00,
2016-02-09 00:41:00,59.9,54.4,29.84,West,270,1.0,9.0,82,0.00,,,0.00,Wunderground v.1.15,2016-02-09 05:41:00,
2016-02-09 00:46:00,59.9,54.4,29.84,ESE,108,1.0,7.0,82,0.00,,,0.00,Wunderground v.1.15,2016-02-09 05:46:00,
2016-02-09 00:56:00,60.2,54.7,29.84,South,182,2.0,2.0,82,0.00,,,0.00,Wunderground v.1.15,2016-02-09 05:56:00,
2016-02-09 01:01:00,60.4,54.9,29.84,East,98,1.0,6.0,82,0.00,,,0.00,Wunderground v.1.15,2016-02-09 06:01:00,
2016-02-09 01:16:00,60.5,55.0,29.84,SSW,211,1.0,6.0,82,0.00,,,0.00,Wunderground v.1.15,2016-02-09 06:16:00,
2016-02-09 01:21:00,60.7,54.8,29.84,SW,223,2.0,6.0,81,0.00,,,0.00,Wunderground v.1.15,2016-02-09 06:21:00,
2016-02-09 01:31:00,60.7,55.2,29.84,SW,227,2.0,10.0,82,0.00,,,0.00,Wunderground v.1.15,2016-02-09 06:31:00,
2016-02-09 01:36:00,60.9,55.0,29.84,SW,214,2.0,2.0,81,0.00,,,0.00,Wunderground v.1.15,2016-02-09 06:36:00,
2016-02-09 01:46:00,60.9,55.4,29.84,WSW,254,1.0,13.0,82,0.00,,,0.00,Wunderground v.1.15,2016-02-09 06:46:00,
2016-02-09 01:56:00,61.2,55.7,29.84,SW,234,2.0,2.0,82,0.00,,,0.00,Wunderground v.1.15,2016-02-09 06:56:00,
2016-02-09 02:01:00,61.2,55.7,29.84,SSW,205,2.0,9.0,82,0.00,,,0.00,Wunderground v.1.15,2016-02-09 07:01:00,
2016-02-09 02:11:00,61.3,55.8,29.84,SW,230,2.0,9.0,82,0.00,,,0.00,Wunderground v.1.15,2016-02-09 07:11:00,
2016-02-09 02:16:00,61.2,55.7,29.83,SSW,202,1.0,9.0,82,0.00,,,0.00,Wunderground v.1.15,2016-02-09 07:16:00,
2016-02-09 02:26:00,61.3,56.1,29.83,SSW,197,1.0,2.0,83,0.00,,,0.00,Wunderground v.1.15,2016-02-09 07:26:00,
2016-02-09 02:36:00,61.5,56.3,29.83,East,80,2.0,6.0,83,0.00,,,0.00,Wunderground v.1.15,2016-02-09 07:36:00,
2016-02-09 02:46:00,61.5,56.3,29.83,South,189,1.0,9.0,83,0.00,,,0.00,Wunderground v.1.15,2016-02-09 07:46:00,
2016-02-09 02:51:00,61.3,56.1,29.83,SSW,205,2.0,2.0,83,0.00,,,0.00,Wunderground v.1.15,2016-02-09 07:51:00,
2016-02-09 03:01:00,61.3,56.1,29.82,WSW,240,2.0,10.0,83,0.00,,,0.00,Wunderground v.1.15,2016-02-09 08:01:00,
2016-02-09 03:06:00,61.2,56.3,29.82,SSE,150,2.0,10.0,84,0.00,,,0.00,Wunderground v.1.15,2016-02-09 08:06:00,
2016-02-09 03:11:00,61.2,56.3,29.82,SW,230,2.0,10.0,84,0.00,,,0.00,Wunderground v.1.15,2016-02-09 08:11:00,
2016-02-09 03:16:00,61.0,56.1,29.82,SSW,198,2.0,10.0,84,0.00,,,0.00,Wunderground v.1.15,2016-02-09 08:16:00,
2016-02-09 03:26:00,60.9,56.0,29.82,West,275,2.0,7.0,84,0.00,,,0.00,Wunderground v.1.15,2016-02-09 08:26:00,
2016-02-09 03:41:00,60.5,56.0,29.82,West,271,1.0,9.0,85,0.00,,,0.00,Wunderground v.1.15,2016-02-09 08:41:00,
2016-02-09 03:46:00,60.5,55.6,29.83,WNW,282,2.0,9.0,84,0.00,,,0.00,Wunderground v.1.15,2016-02-09 08:46:00,
2016-02-09 03:56:00,60.7,54.8,29.83,WNW,291,3.0,7.0,81,0.00,,,0.00,Wunderground v.1.15,2016-02-09 08:56:00,
2016-02-09 04:01:00,60.7,54.5,29.84,WNW,296,3.0,10.0,80,0.00,,,0.00,Wunderground v.1.15,2016-02-09 09:01:00,
2016-02-09 04:16:00,60.4,51.3,29.85,WNW,299,3.0,11.0,72,0.00,,,0.00,Wunderground v.1.15,2016-02-09 09:16:00,
2016-02-09 04:21:00,60.2,51.1,29.85,West,264,3.0,11.0,72,0.00,,,0.00,Wunderground v.1.15,2016-02-09 09:21:00,
2016-02-09 04:26:00,60.2,51.1,29.85,WNW,294,3.0,3.0,72,0.00,,,0.00,Wunderground v.1.15,2016-02-09 09:26:00,
2016-02-09 04:36:00,60.1,51.4,29.86,WNW,300,3.0,3.0,73,0.00,,,0.00,Wunderground v.1.15,2016-02-09 09:36:00,
2016-02-09 04:46:00,59.9,51.2,29.87,WSW,248,3.0,10.0,73,0.00,,,0.00,Wunderground v.1.15,2016-02-09 09:46:00,
2016-02-09 04:56:00,59.6,49.8,29.87,WNW,296,4.0,4.0,70,0.00,,,0.00,Wunderground v.1.15,2016-02-09 09:56:00,
2016-02-09 05:06:00,59.5,49.7,29.88,WNW,298,2.0,11.0,70,0.00,,,0.00,Wunderground v.1.15,2016-02-09 10:06:00,
2016-02-09 05:16:00,59.0,48.4,29.87,WNW,294,2.0,5.0,68,0.00,,,0.00,Wunderground v.1.15,2016-02-09 10:16:00,
2016-02-09 05:31:00,58.7,47.4,29.88,NNW,338,2.0,3.0,66,0.00,,,0.00,Wunderground v.1.15,2016-02-09 10:31:00,
2016-02-09 05:41:00,58.4,46.3,29.88,WNW,293,3.0,7.0,64,0.00,,,0.00,Wunderground v.1.15,2016-02-09 10:41:00,
2016-02-09 05:51:00,58.3,45.3,29.88,WNW,301,2.0,6.0,62,0.00,,,0.00,Wunderground v.1.15,2016-02-09 10:51:00,
2016-02-09 05:56:00,58.1,45.1,29.88,WNW,285,2.0,2.0,62,0.00,,,0.00,Wunderground v.1.15,2016-02-09 10:56:00,
2016-02-09 06:06:00,58.0,45.0,29.89,WSW,244,2.0,10.0,62,0.00,,,0.00,Wunderground v.1.15,2016-02-09 11:06:00,
2016-02-09 06:11:00,57.8,44.9,29.89,WNW,292,2.0,10.0,62,0.00,,,0.00,Wunderground v.1.15,2016-02-09 11:11:00,
2016-02-09 06:16:00,57.6,45.1,29.90,WNW,293,1.0,10.0,63,0.00,,,0.00,Wunderground v.1.15,2016-02-09 11:16:00,
2016-02-09 06:26:00,57.5,44.6,29.90,WNW,302,2.0,9.0,62,0.00,,,0.00,Wunderground v.1.15,2016-02-09 11:26:00,
2016-02-09 06:36:00,57.3,44.8,29.91,West,271,2.0,6.0,63,0.00,,,0.00,Wunderground v.1.15,2016-02-09 11:36:00,
2016-02-09 06:46:00,57.0,44.5,29.91,West,277,2.0,6.0,63,0.00,,,0.00,Wunderground v.1.15,2016-02-09 11:46:00,
2016-02-09 06:56:00,56.9,44.4,29.91,WSW,247,2.0,4.0,63,0.00,,,0.00,Wunderground v.1.15,2016-02-09 11:56:00,
2016-02-09 07:06:00,56.7,44.2,29.92,WNW,303,2.0,5.0,63,0.00,,,0.00,Wunderground v.1.15,2016-02-09 12:06:00,
2016-02-09 07:16:00,56.5,43.6,29.93,NNW,338,2.0,6.0,62,0.00,,,0.00,Wunderground v.1.15,2016-02-09 12:16:00,
2016-02-09 07:21:00,56.0,43.2,29.93,NNW,344,2.0,2.0,62,0.00,,,0.00,Wunderground v.1.15,2016-02-09 12:21:00,
2016-02-09 07:31:00,55.4,43.0,29.94,NW,317,2.0,2.0,63,0.00,,,0.00,Wunderground v.1.15,2016-02-09 12:31:00,
2016-02-09 07:41:00,55.1,43.1,29.94,NW,315,2.0,2.0,64,0.00,,,0.00,Wunderground v.1.15,2016-02-09 12:41:00,
2016-02-09 07:46:00,55.0,43.0,29.96,NW,321,1.0,7.0,64,0.00,,,0.00,Wunderground v.1.15,2016-02-09 12:46:00,
2016-02-09 07:56:00,55.0,42.2,29.96,NW,315,2.0,7.0,62,0.00,,,0.00,Wunderground v.1.15,2016-02-09 12:56:00,
2016-02-09 08:06:00,55.0,41.4,29.96,WNW,290,3.0,4.0,60,0.00,,,0.00,Wunderground v.1.15,2016-02-09 13:06:00,
2016-02-09 08:11:00,55.0,40.9,29.96,NW,313,3.0,3.0,59,0.00,,,0.00,Wunderground v.1.15,2016-02-09 13:11:00,
2016-02-09 08:16:00,55.0,40.9,29.97,West,279,3.0,10.0,59,0.00,,,0.00,Wunderground v.1.15,2016-02-09 13:16:00,
2016-02-09 08:26:00,55.0,40.5,29.97,WNW,293,2.0,10.0,58,0.00,,,0.00,Wunderground v.1.15,2016-02-09 13:26:00,
2016-02-09 08:36:00,55.1,40.1,29.98,West,271,2.0,10.0,57,0.00,,,0.00,Wunderground v.1.15,2016-02-09 13:36:00,
2016-02-09 08:46:00,55.0,39.6,29.99,NW,318,3.0,8.0,56,0.00,,,0.00,Wunderground v.1.15,2016-02-09 13:46:00,
2016-02-09 08:56:00,55.3,39.4,29.99,North,360,2.0,8.0,55,0.00,,,0.00,Wunderground v.1.15,2016-02-09 13:56:00,
2016-02-09 09:01:00,55.3,38.9,29.99,WNW,302,3.0,7.0,54,0.00,,,0.00,Wunderground v.1.15,2016-02-09 14:01:00,
2016-02-09 09:16:00,55.7,38.8,29.99,WNW,289,2.0,2.0,53,0.00,,,0.00,Wunderground v.1.15,2016-02-09 14:16:00,
2016-02-09 09:26:00,55.7,39.3,29.99,North,349,2.0,9.0,54,0.00,,,0.00,Wunderground v.1.15,2016-02-09 14:26:00,
2016-02-09 09:36:00,55.9,39.0,30.00,NNW,328,2.0,4.0,53,0.00,,,0.00,Wunderground v.1.15,2016-02-09 14:36:00,
2016-02-09 09:46:00,55.7,38.3,30.01,West,263,3.0,3.0,52,0.00,,,0.00,Wunderground v.1.15,2016-02-09 14:46:00,
2016-02-09 09:56:00,55.9,39.5,30.01,West,280,1.0,9.0,54,0.00,,,0.00,Wunderground v.1.15,2016-02-09 14:56:00,
2016-02-09 10:06:00,56.0,38.6,30.01,WNW,301,2.0,6.0,52,0.00,,,0.00,Wunderground v.1.15,2016-02-09 15:06:00,
2016-02-09 10:16:00,56.2,38.8,30.02,North,9,2.0,7.0,52,0.00,,,0.00,Wunderground v.1.15,2016-02-09 15:16:00,
2016-02-09 10:21:00,56.2,39.3,30.02,SW,229,2.0,7.0,53,0.00,,,0.00,Wunderground v.1.15,2016-02-09 15:21:00,
2016-02-09 10:31:00,56.6,39.7,30.01,NW,323,2.0,7.0,53,0.00,,,0.00,Wunderground v.1.15,2016-02-09 15:31:00,
2016-02-09 10:41:00,58.1,39.5,30.01,WSW,245,3.0,7.0,50,0.00,,,0.00,Wunderground v.1.15,2016-02-09 15:41:00,
2016-02-09 10:51:00,60.1,39.2,30.01,NW,315,4.0,4.0,46,0.00,,,0.00,Wunderground v.1.15,2016-02-09 15:51:00,
2016-02-09 11:01:00,60.9,39.4,30.01,NNW,337,3.0,3.0,45,0.00,,,0.00,Wunderground v.1.15,2016-02-09 16:01:00,
2016-02-09 11:06:00,60.5,40.2,30.01,NW,304,3.0,10.0,47,0.00,,,0.00,Wunderground v.1.15,2016-02-09 16:06:00,
2016-02-09 11:16:00,60.2,39.9,30.00,WNW,294,3.0,3.0,47,0.00,,,0.00,Wunderground v.1.15,2016-02-09 16:16:00,
2016-02-09 11:21:00,59.8,40.6,30.00,SW,236,2.0,10.0,49,0.00,,,0.00,Wunderground v.1.15,2016-02-09 16:21:00,
2016-02-09 11:31:00,60.2,41.0,29.99,NW,319,2.0,10.0,49,0.00,,,0.00,Wunderground v.1.15,2016-02-09 16:31:00,
2016-02-09 11:41:00,60.9,41.6,29.99,NNW,329,2.0,6.0,49,0.00,,,0.00,Wunderground v.1.15,2016-02-09 16:41:00,
2016-02-09 11:46:00,61.3,40.9,29.98,NW,306,2.0,2.0,47,0.00,,,0.00,Wunderground v.1.15,2016-02-09 16:46:00,
2016-02-09 11:56:00,62.9,42.4,29.98,NW,325,1.0,6.0,47,0.00,,,0.00,Wunderground v.1.15,2016-02-09 16:56:00,
2016-02-09 12:06:00,62.9,41.2,29.98,WNW,302,3.0,12.0,45,0.00,,,0.00,Wunderground v.1.15,2016-02-09 17:06:00,
2016-02-09 12:11:00,62.9,41.8,29.98,WNW,290,3.0,3.0,46,0.00,,,0.00,Wunderground v.1.15,2016-02-09 17:11:00,
2016-02-09 12:16:00,63.1,42.0,29.98,SW,215,2.0,4.0,46,0.00,,,0.00,Wunderground v.1.15,2016-02-09 17:16:00,
2016-02-09 12:26:00,62.3,41.8,29.98,NW,325,2.0,10.0,47,0.00,,,0.00,Wunderground v.1.15,2016-02-09 17:26:00,
2016-02-09 12:36:00,62.4,41.9,29.98,WSW,243,3.0,4.0,47,0.00,,,0.00,Wunderground v.1.15,2016-02-09 17:36:00,
2016-02-09 12:46:00,62.3,43.4,29.96,SSW,210,2.0,9.0,50,0.00,,,0.00,Wunderground v.1.15,2016-02-09 17:46:00,
2016-02-09 12:56:00,62.3,42.9,29.96,West,267,3.0,9.0,49,0.00,,,0.00,Wunderground v.1.15,2016-02-09 17:56:00,
2016-02-09 13:06:00,62.6,43.2,29.96,WSW,247,2.0,9.0,49,0.00,,,0.00,Wunderground v.1.15,2016-02-09 18:06:00,
2016-02-09 13:11:00,62.4,43.5,29.96,SSW,209,2.0,2.0,50,0.00,,,0.00,Wunderground v.1.15,2016-02-09 18:11:00,
2016-02-09 13:16:00,62.1,43.7,29.94,WSW,240,2.0,9.0,51,0.00,,,0.00,Wunderground v.1.15,2016-02-09 18:16:00,
2016-02-09 13:21:00,61.5,43.2,29.94,South,171,2.0,9.0,51,0.00,,,0.00,Wunderground v.1.15,2016-02-09 18:21:00,
2016-02-09 13:31:00,61.2,44.4,29.94,SW,232,3.0,7.0,54,0.00,,,0.00,Wunderground v.1.15,2016-02-09 18:31:00,
2016-02-09 13:41:00,61.2,44.4,29.94,SW,235,2.0,2.0,54,0.00,,,0.00,Wunderground v.1.15,2016-02-09 18:41:00,
2016-02-09 13:51:00,61.3,43.0,29.93,SW,225,2.0,10.0,51,0.00,,,0.00,Wunderground v.1.15,2016-02-09 18:51:00,
2016-02-09 13:56:00,61.3,44.0,29.93,WNW,294,2.0,10.0,53,0.00,,,0.00,Wunderground v.1.15,2016-02-09 18:56:00,
2016-02-09 14:06:00,61.3,44.5,29.93,SSE,165,3.0,9.0,54,0.00,,,0.00,Wunderground v.1.15,2016-02-09 19:06:00,
2016-02-09 14:11:00,61.2,44.4,29.93,South,186,3.0,3.0,54,0.00,,,0.00,Wunderground v.1.15,2016-02-09 19:11:00,
2016-02-09 14:21:00,62.0,44.2,29.92,SSW,211,2.0,10.0,52,0.00,,,0.00,Wunderground v.1.15,2016-02-09 19:21:00,
2016-02-09 14:26:00,62.7,45.3,29.92,West,262,2.0,10.0,53,0.00,,,0.00,Wunderground v.1.15,2016-02-09 19:26:00,
2016-02-09 14:46:00,62.1,45.2,29.91,SSW,204,2.0,4.0,54,0.00,,,0.00,Wunderground v.1.15,2016-02-09 19:46:00,
2016-02-09 14:56:00,62.6,45.2,29.91,SW,222,2.0,10.0,53,0.00,,,0.00,Wunderground v.1.15,2016-02-09 19:56:00,
2016-02-09 15:01:00,63.1,46.2,29.91,WSW,240,2.0,5.0,54,0.00,,,0.00,Wunderground v.1.15,2016-02-09 20:01:00,
2016-02-09 15:06:00,63.7,46.2,29.91,WSW,256,2.0,5.0,53,0.00,,,0.00,Wunderground v.1.15,2016-02-09 20:06:00,
2016-02-09 15:11:00,64.2,46.7,29.91,West,260,1.0,5.0,53,0.00,,,0.00,Wunderground v.1.15,2016-02-09 20:11:00,
2016-02-09 15:21:00,64.7,46.7,29.90,WNW,292,2.0,6.0,52,0.00,,,0.00,Wunderground v.1.15,2016-02-09 20:21:00,
2016-02-09 15:26:00,65.0,46.9,29.90,West,280,2.0,6.0,52,0.00,,,0.00,Wunderground v.1.15,2016-02-09 20:26:00,
2016-02-09 15:36:00,65.8,46.6,29.90,SSW,213,3.0,9.0,50,0.00,,,0.00,Wunderground v.1.15,2016-02-09 20:36:00,
2016-02-09 15:41:00,65.5,45.8,29.90,West,277,2.0,9.0,49,0.00,,,0.00,Wunderground v.1.15,2016-02-09 20:41:00,
2016-02-09 15:51:00,64.8,45.7,29.90,SW,228,3.0,8.0,50,0.00,,,0.00,Wunderground v.1.15,2016-02-09 20:51:00,
2016-02-09 15:56:00,64.5,46.5,29.90,WSW,244,3.0,8.0,52,0.00,,,0.00,Wunderground v.1.15,2016-02-09 20:56:00,
2016-02-09 16:01:00,64.3,46.3,29.90,West,265,2.0,7.0,52,0.00,,,0.00,Wunderground v.1.15,2016-02-09 21:01:00,
2016-02-09 16:16:00,64.2,46.2,29.90,West,277,2.0,10.0,52,0.00,,,0.00,Wunderground v.1.15,2016-02-09 21:16:00,
2016-02-09 16:21:00,64.0,47.0,29.90,WSW,242,2.0,10.0,54,0.00,,,0.00,Wunderground v.1.15,2016-02-09 21:21:00,
2016-02-09 16:31:00,63.5,46.1,29.91,SW,216,3.0,11.0,53,0.00,,,0.00,Wunderground v.1.15,2016-02-09 21:31:00,
2016-02-09 16:41:00,63.1,46.2,29.91,South,188,3.0,11.0,54,0.00,,,0.00,Wunderground v.1.15,2016-02-09 21:41:00,
2016-02-09 16:51:00,62.7,45.8,29.91,WSW,255,2.0,10.0,54,0.00,,,0.00,Wunderground v.1.15,2016-02-09 21:51:00,
2016-02-09 17:01:00,62.9,46.5,29.92,NW,304,3.0,10.0,55,0.00,,,0.00,Wunderground v.1.15,2016-02-09 22:01:00,
2016-02-09 17:11:00,62.7,46.3,29.92,West,269,3.0,3.0,55,0.00,,,0.00,Wunderground v.1.15,2016-02-09 22:11:00,
2016-02-09 17:21:00,62.4,46.0,29.92,NNW,329,3.0,10.0,55,0.00,,,0.00,Wunderground v.1.15,2016-02-09 22:21:00,
2016-02-09 17:26:00,62.3,46.4,29.92,West,278,3.0,10.0,56,0.00,,,0.00,Wunderground v.1.15,2016-02-09 22:26:00,
2016-02-09 17:36:00,62.0,46.1,29.93,NNW,334,3.0,9.0,56,0.00,,,0.00,Wunderground v.1.15,2016-02-09 22:36:00,
2016-02-09 17:46:00,61.5,46.1,29.93,WSW,246,2.0,11.0,57,0.00,,,0.00,Wunderground v.1.15,2016-02-09 22:46:00,
2016-02-09 17:51:00,61.3,45.9,29.93,SW,235,2.0,11.0,57,0.00,,,0.00,Wunderground v.1.15,2016-02-09 22:51:00,
2016-02-09 18:01:00,61.0,46.1,29.93,SW,224,3.0,3.0,58,0.00,,,0.00,Wunderground v.1.15,2016-02-09 23:01:00,
2016-02-09 18:16:00,60.2,46.3,29.94,WNW,297,1.0,5.0,60,0.00,,,0.00,Wunderground v.1.15,2016-02-09 23:16:00,
2016-02-09 18:21:00,60.1,46.6,29.94,SW,231,1.0,5.0,61,0.00,,,0.00,Wunderground v.1.15,2016-02-09 23:21:00,
2016-02-09 18:31:00,59.8,46.3,29.94,West,263,2.0,7.0,61,0.00,,,0.00,Wunderground v.1.15,2016-02-09 23:31:00,
2016-02-09 18:41:00,59.5,46.5,29.94,SSW,208,1.0,7.0,62,0.00,,,0.00,Wunderground v.1.15,2016-02-09 23:41:00,
2016-02-09 18:51:00,59.3,46.3,29.94,West,264,1.0,4.0,62,0.00,,,0.00,Wunderground v.1.15,2016-02-09 23:51:00,
2016-02-09 19:01:00,59.2,46.6,29.94,SW,234,1.0,1.0,63,0.00,,,0.00,Wunderground v.1.15,2016-02-10 00:01:00,
2016-02-09 19:11:00,59.0,46.0,29.94,SW,219,1.0,1.0,62,0.00,,,0.00,Wunderground v.1.15,2016-02-10 00:11:00,
2016-02-09 19:21:00,58.9,46.3,29.96,SSE,153,1.0,10.0,63,0.00,,,0.00,Wunderground v.1.15,2016-02-10 00:21:00,
2016-02-09 19:26:00,58.9,46.7,29.96,SSE,150,1.0,10.0,64,0.00,,,0.00,Wunderground v.1.15,2016-02-10 00:26:00,
2016-02-09 19:46:00,58.4,46.3,29.96,SSW,209,1.0,5.0,64,0.00,,,0.00,Wunderground v.1.15,2016-02-10 00:46:00,
2016-02-09 19:56:00,58.4,46.3,29.96,WNW,293,1.0,5.0,64,0.00,,,0.00,Wunderground v.1.15,2016-02-10 00:56:00,
2016-02-09 20:06:00,58.3,46.6,29.97,WSW,238,0.0,4.0,65,0.00,,,0.00,Wunderground v.1.15,2016-02-10 01:06:00,
2016-02-09 20:11:00,58.3,46.6,29.97,South,172,1.0,1.0,65,0.00,,,0.00,Wunderground v.1.15,2016-02-10 01:11:00,
2016-02-09 20:16:00,58.3,47.0,29.98,ESE,113,1.0,7.0,66,0.00,,,0.00,Wunderground v.1.15,2016-02-10 01:16:00,
2016-02-09 20:31:00,58.0,47.1,29.98,South,172,1.0,1.0,67,0.00,,,0.00,Wunderground v.1.15,2016-02-10 01:31:00,
2016-02-09 20:41:00,57.8,46.9,29.98,SW,235,1.0,4.0,67,0.00,,,0.00,Wunderground v.1.15,2016-02-10 01:41:00,
2016-02-09 20:46:00,57.8,46.9,29.98,SW,226,1.0,7.0,67,0.00,,,0.00,Wunderground v.1.15,2016-02-10 01:46:00,
2016-02-09 20:51:00,57.6,47.1,29.98,SW,225,1.0,1.0,68,0.00,,,0.00,Wunderground v.1.15,2016-02-10 01:51:00,
2016-02-09 21:01:00,57.3,47.2,29.99,SW,225,0.0,3.0,69,0.00,,,0.00,Wunderground v.1.15,2016-02-10 02:01:00,